Cloud_Cover
5 5 0 0 2 0 0 0 0 0 0 0 4 5 83 44 100 90 99 100 100 100 95 100 100 100 100 100 98 100 100 100 100 100 100 100 100 100 100 100 100 100 100 100
5 5 1 0 0 0 0 0 0 0 0 4 16 35 69 90 88 93 100 100 100 100 99 90 100 100 85 100 88 100 100 100 100 100 100 100 100 100 100 100 100 100 100 100
5 5 5 3 0 0 0 0 1 4 0 14 56 99 100 86 73 100 88 100 100 97 100 100 100 100 5 57 0 96 100 100 100 100 100 100 100 100 100 100 100 100 100 100
5 5 5 2 0 0 0 0 5 27 73 25 91 100 100 100 84 92 43 99 100 100 100 95 30 8 5 1 0 95 100 100 100 100 100 100 100 100 100 100 100 100 100 100
26 5 5 0 0 0 1 0 35 90 100 100 99 96 100 100 100 100 100 100 100 34 8 12 61 24 3 5 3 5 96 100 100 100 100 100 100 100 100 100 100 100 100 100
21 5 5 0 0 0 0 56 3 64 93 100 97 100 100 100 100 76 100 100 100 100 84 87 91 53 53 5 28 53 99 95 100 100 100 100 100 100 100 100 100 100 100 100
5 5 5 2 1 4 5 84 8 69 58 86 100 100 100 21 32 96 98 91 99 100 100 95 5 86 96 5 4 31 23 98 97 100 100 100 100 100 100 100 100 100 100 100
46 5 1 0 0 0 2 9 20 48 9 28 68 100 100 74 41 5 6 36 58 99 97 100 48 100 98 18 5 5 99 85 91 99 98 81 100 100 100 100 100 100 100 100
19 5 4 0 0 0 0 1 3 5 41 9 84 91 74 97 81 39 5 5 6 99 99 86 100 66 100 48 5 5 100 100 100 100 100 100 100 99 96 100 100 100 100 100
10 5 4 0 0 0 0 0 2 5 5 5 4 5 34 94 98 100 95 54 30 25 100 6 22 92 88 95 98 77 35 80 96 100 98 96 100 91 77 100 99 100 100 100
8 5 5 0 0 0 0 0 0 0 4 0 0 0 3 5 51 99 44 80 21 38 13 57 25 65 33 100 100 100 100 99 100 100 99 100 17 10 80 100 100 100 100 100
5 5 5 5 3 0 0 0 0 0 0 0 0 0 0 1 17 99 62 60 100 50 93 50 62 89 99 84 100 95 84 99 100 100 100 100 100 97 100 100 100 100 100 100
5 5 5 5 3 0 0 5 5 3 5 4 0 0 0 0 1 19 93 3 20 9 29 38 17 52 73 99 53 100 88 57 99 100 100 100 100 100 100 100 100 100 100 100
5 5 5 4 2 3 2 3 5 2 0 2 0 0 0 0 0 0 1 0 0 5 10 78 97 53 53 64 50 98 98 100 93 95 100 100 100 100 100 100 100 100 100 100
5 14 5 5 0 2 3 3 5 5 2 1 2 0 0 0 0 0 0 0 1 5 42 85 90 47 63 23 48 61 66 100 100 100 100 96 80 99 100 100 96 100 100 76
10 4 13 22 29 4 5 5 0 0 0 5 6 1 0 0 0 5 0 0 2 5 5 85 77 5 48 100 100 5 15 60 13 66 93 97 100 100 89 100 100 100 95 94
34 5 0 5 4 0 5 5 5 3 0 4 2 0 0 0 1 16 50 0 2 3 7 8 48 64 18 74 96 54 38 13 44 43 88 53 94 94 100 95 13 67 89 66
5 5 5 5 5 5 5 6 5 5 5 0 0 0 0 0 9 22 9 92 2 1 7 39 53 34 14 55 4 5 5 5 5 5 8 6 26 86 74 62 87 100 99 100
6 5 5 5 5 5 10 12 25 5 5 5 5 0 0 0 5 57 97 7 100 5 95 97 24 7 30 2 1 5 5 5 5 5 5 5 5 10 81 100 96 95 100 100
5 5 5 5 5 5 5 6 40 5 5 5 5 4 4 4 18 100 86 68 65 100 95 38 87 5 1 5 5 5 5 10 66 96 38 59 99 100 100 100 100 99 91 100
5 5 5 5 5 5 6 7 5 5 5 5 5 5 4 80 100 100 96 99 71 100 75 64 66 98 0 5 5 5 5 62 94 96 79 90 99 100 96 53 80 100 79 58
5 5 5 5 5 5 5 5 11 6 5 5 5 21 55 100 99 100 100 100 42 99 10 93 100 9 0 5 5 5 5 5 8 24 5 5 34 71 41 5 5 46 79 49
5 5 5 5 6 9 5 35 53 8 22 53 62 38 42 99 100 100 100 100 99 12 98 80 8 2 5 5 5 5 5 5 8 29 51 42 34 63 48 52 14 46 19 42
5 5 65 15 5 5 5 42 18 5 5 6 68 99 98 100 100 100 100 80 6 55 5 4 0 5 5 32 60 58 41 61 75 89 98 98 89 76 94 85 98 100 99 60
5 7 99 32 21 5 7 5 6 5 5 86 87 100 43 97 97 38 10 4 2 0 0 0 0 5 20 82 68 5 5 50 75 85 68 73 98 100 100 100 100 100 100 100
45 56 100 12 33 37 28 25 5 5 5 100 87 48 15 6 5 5 1 0 0 0 0 0 0 5 5 22 5 5 5 5 10 78 90 98 100 100 100 100 100 100 100 100
39 71 99 40 28 73 78 5 5 4 39 7 5 2 4 8 5 2 0 0 0 0 0 0 0 4 5 5 54 5 5 5 87 100 100 100 100 100 100 100 100 100 100 100